Flag for Germany Weather past 2 weeks in Hamburg, Hamburg, Germany

Now
50 °F

Partly cloudy.


Feels Like: 48 °F
Forecast: 46 / 54 °F
Wind: 6 mph from Southwest

Location: Hamburg-Fuhlsbuettel

Current Time: Oct 21, 2014 at 5:03:32 AM

Latest Report: Oct 21, 2014 at 4:20 AM


Visibility: N/A

Pressure: 29.77 "Hg

Humidity: 100%

Dew point: 50 °F

Location of HamburgLocation

Historic Weather in Hamburg — Graph

°F

Hamburg temperature yesterday

Maximum temperature yesterday: 61 °F (at 1:50 PM)
Minimum temperature yesterday: 54 °F (at 10:50 PM)
Average temperature yesterday: 58 °F

Past Weeks' High & Low Weather Summary

 TemperatureHumidityPressure
High72 °F (Oct 19, 1:50 PM)100% (Oct 7, 1:50 PM)30.12 "Hg (Oct 7, 1:50 PM)
Low48 °F (Oct 8, 6:50 AM)59% (Oct 6, 7:20 PM)29.50 "Hg (Oct 7, 2:20 PM)
Average57 °F86%29.81 "Hg
* Reported Oct 6 3:20 AM — Oct 21 3:50 AM, Hamburg, Weather by CustomWeather, © 2014

Note: Actual official high and low records may vary slightly from our data, if they occured in-between our weather recording intervals... More about our weather records

Advertising

Hamburg weather history for previous 24 hours

 ConditionsComfort  
Time TempWeatherWind HumidityBarometerVisibility
3:50 AM
Oct 21
52 °FPartly cloudy.7 mph94%29.77 "HgN/A
3:20 AM54 °FPartly cloudy.8 mph94%29.77 "HgN/A
2:50 AM54 °FPartly cloudy.7 mph94%29.80 "HgN/A
2:20 AM54 °FPartly cloudy.8 mph94%29.80 "HgN/A
1:50 AM54 °FPartly cloudy.8 mph94%29.80 "HgN/A
1:20 AM54 °FPartly cloudy.8 mph94%29.80 "HgN/A
12:50 AM54 °FPassing clouds.8 mph94%29.80 "HgN/A
12:20 AM54 °FPassing clouds.8 mph94%29.80 "HgN/A
11:50 PM
Oct 20
54 °FLight rain. Passing clouds.7 mph94%29.80 "HgN/A
11:20 PM54 °FLight rain. Passing clouds.9 mph94%29.83 "HgN/A
10:50 PM54 °FLight rain. Passing clouds.10 mph94%29.83 "HgN/A
10:20 PM55 °FLight rain. Passing clouds.8 mph88%29.83 "HgN/A
9:50 PM55 °FLight rain. Passing clouds.10 mph88%29.83 "HgN/A
9:20 PM55 °FPartly cloudy.7 mph88%29.86 "HgN/A
8:50 PM55 °FLight rain. Passing clouds.7 mph88%29.83 "HgN/A
8:20 PM55 °FLight rain. Passing clouds.8 mph88%29.83 "HgN/A
7:50 PM57 °FLight rain. Passing clouds.9 mph77%29.86 "HgN/A
7:20 PM55 °FScattered showers. Partly cloudy.5 mph82%29.86 "HgN/A
6:50 PM57 °FBroken clouds.7 mph77%29.86 "HgN/A
6:20 PM57 °FScattered showers. Broken clouds.7 mph82%29.86 "HgN/A
5:50 PM57 °FSprinkles. Scattered clouds.5 mph77%29.86 "HgN/A
5:20 PM57 °FScattered clouds.10 mph77%29.86 "HgN/A
4:50 PM59 °FScattered clouds.12 mph72%29.86 "HgN/A
4:20 PM59 °FScattered clouds.12 mph72%29.86 "HgN/A
3:50 PM59 °FScattered clouds.14 mph72%29.86 "HgN/A
3:20 PM59 °FScattered clouds.14 mph72%29.86 "HgN/A
2:50 PM61 °FScattered clouds.14 mph68%29.86 "HgN/A
2:20 PM61 °FScattered clouds.16 mph68%29.86 "HgN/A
1:50 PM61 °FScattered clouds.13 mph72%29.86 "HgN/A
1:20 PM59 °FScattered clouds.15 mph82%29.86 "HgN/A
12:50 PM59 °FBroken clouds.15 mph82%29.86 "HgN/A
12:20 PM59 °FScattered clouds.13 mph82%29.86 "HgN/A
11:50 AM59 °FScattered clouds.13 mph88%29.86 "HgN/A
11:20 AM57 °FScattered clouds.12 mph88%29.83 "HgN/A
10:50 AM57 °FScattered clouds.12 mph94%29.83 "HgN/A
10:20 AM57 °FScattered clouds.10 mph94%29.83 "HgN/A
9:50 AM55 °FSprinkles. Scattered clouds.13 mph94%29.83 "Hg6 mi
9:20 AM55 °FSprinkles. Partly sunny.15 mph100%29.83 "Hg4 mi
8:50 AM55 °FRain showers. Passing clouds.14 mph94%29.83 "Hg4 mi
8:20 AM57 °FSprinkles. Passing clouds.14 mph88%29.80 "Hg6 mi
7:50 AM57 °FPassing clouds.14 mph88%29.80 "HgN/A
7:20 AM57 °FPartly cloudy.14 mph88%29.80 "HgN/A
6:50 AM57 °FPartly cloudy.16 mph88%29.80 "HgN/A
5:20 AM59 °FPassing clouds.15 mph82%29.80 "HgN/A
Weather by CustomWeather, © 2014

See weather overviewHow to use our weather pages